TimeEST,TemperatureF,Dew PointF,Humidity,Sea Level PressureIn,VisibilityMPH,Wind Direction,Wind SpeedMPH,Gust SpeedMPH,PrecipitationIn,Events,Conditions,WindDirDegrees,DateUTC
12:51 AM,36.0,23.0,59,30.03,10.0,NW,8.1,-,N/A,,Overcast,310,2012-11-05 05:51:00
1:51 AM,36.0,23.0,59,30.03,10.0,NW,8.1,-,N/A,,Overcast,320,2012-11-05 06:51:00
2:51 AM,36.0,23.0,59,30.03,10.0,NW,5.8,-,N/A,,Overcast,310,2012-11-05 07:51:00
3:51 AM,35.1,23.0,61,30.03,10.0,NNW,5.8,-,N/A,,Overcast,330,2012-11-05 08:51:00
4:51 AM,35.1,23.0,61,30.03,10.0,NW,6.9,-,N/A,,Overcast,310,2012-11-05 09:51:00
5:51 AM,35.1,23.0,61,30.03,10.0,NW,5.8,-,N/A,,Overcast,310,2012-11-05 10:51:00
6:51 AM,35.1,23.0,61,30.05,10.0,NNW,8.1,-,N/A,,Overcast,340,2012-11-05 11:51:00
7:51 AM,36.0,23.0,59,30.07,10.0,North,4.6,-,N/A,,Overcast,350,2012-11-05 12:51:00
8:51 AM,36.0,21.9,57,30.08,10.0,North,6.9,-,N/A,,Overcast,350,2012-11-05 13:51:00
9:51 AM,37.9,22.1,53,30.08,10.0,North,6.9,-,N/A,,Overcast,360,2012-11-05 14:51:00
10:51 AM,37.0,21.0,52,30.09,10.0,NNW,9.2,-,N/A,,Overcast,330,2012-11-05 15:51:00
11:51 AM,37.9,21.0,51,30.08,10.0,North,8.1,-,N/A,,Mostly Cloudy,350,2012-11-05 16:51:00
12:51 PM,39.9,18.0,41,30.07,10.0,NNW,11.5,-,N/A,,Mostly Cloudy,330,2012-11-05 17:51:00
1:51 PM,39.9,18.0,41,30.06,10.0,North,9.2,18.4,N/A,,Mostly Cloudy,10,2012-11-05 18:51:00
2:51 PM,41.0,16.0,36,30.06,10.0,NW,10.4,-,N/A,,Scattered Clouds,310,2012-11-05 19:51:00
3:51 PM,39.0,16.0,39,30.07,10.0,NW,11.5,-,N/A,,Scattered Clouds,320,2012-11-05 20:51:00
4:51 PM,36.0,16.0,44,30.10,10.0,NNW,11.5,-,N/A,,Scattered Clouds,330,2012-11-05 21:51:00
5:51 PM,34.0,17.1,50,30.13,10.0,NNW,9.2,-,N/A,,Scattered Clouds,330,2012-11-05 22:51:00
6:51 PM,32.0,17.1,54,30.15,10.0,NW,6.9,-,N/A,,Partly Cloudy,310,2012-11-05 23:51:00
7:51 PM,30.0,17.1,59,30.17,10.0,NW,5.8,-,N/A,,Scattered Clouds,310,2012-11-06 00:51:00
8:51 PM,32.0,17.1,54,30.19,10.0,NW,6.9,-,N/A,,Mostly Cloudy,310,2012-11-06 01:51:00
9:51 PM,30.9,16.0,54,30.19,10.0,NW,6.9,-,N/A,,Mostly Cloudy,320,2012-11-06 02:51:00
10:51 PM,28.9,17.1,61,30.19,10.0,NW,3.5,-,N/A,,Mostly Cloudy,310,2012-11-06 03:51:00
11:51 PM,28.9,16.0,58,30.20,10.0,WNW,5.8,-,N/A,,Partly Cloudy,300,2012-11-06 04:51:00